Location: Newark
(41.9364°N, 2.8061°E)
Time: 18:09:57
(UTC+00:00)

Vanguard 1 - Visible Passes

Search period start: 25 February 2020 00:00
Search period end: 06 March 2020 00:00
Orbit: 650 x 3833 km, 34.2° (Epoch: 24 February)

Date Brightness Start Highest point End Pass type
(mag) Time Alt. Az. Time Alt. Az. Time Alt. Az.
25 Feb 14.1 04:33:16 10° S 04:51:13 30° SE 05:07:13 10° E visible
26 Feb 14.3 02:43:33 10° SE 02:49:08 11° SE 02:54:44 10° ESE visible
26 Feb 13.9 04:52:28 10° SSW 05:12:04 37° SE 05:29:12 10° E visible
27 Feb 14.1 02:57:29 10° SSE 03:09:38 17° SE 03:21:52 10° E visible
27 Feb 13.7 05:12:12 10° SSW 05:33:01 43° SSE 05:50:49 10° E visible
28 Feb 14.0 03:14:49 10° S 03:30:09 24° SE 03:45:38 10° E visible
28 Feb 13.6 05:32:21 10° SW 05:54:04 50° SSE 06:12:13 10° E visible
29 Feb 13.9 03:33:23 10° S 03:50:45 31° SE 04:08:16 10° E visible
29 Feb 13.5 05:52:50 10° SW 06:15:13 56° SSE 06:33:29 10° E visible
01 Mar 14.1 01:44:25 10° SE 01:49:16 11° ESE 01:54:17 10° ESE visible
01 Mar 13.7 03:52:39 10° SSW 04:11:27 38° SE 04:30:19 10° E visible
02 Mar 13.9 01:58:19 10° SSE 02:09:32 17° SE 02:21:44 10° E visible
02 Mar 13.6 04:12:25 10° SSW 04:32:16 45° SSE 04:52:01 10° E visible
03 Mar 13.7 02:18:38 15° SSE 02:29:51 24° SE 02:45:38 10° E visible
03 Mar 13.4 04:32:34 10° SW 04:53:13 51° SSE 05:13:32 10° E visible
04 Mar 13.5 02:38:54 19° S 02:50:15 31° SE 03:08:23 10° E visible
04 Mar 13.3 04:53:01 10° SW 05:14:18 57° SSE 05:34:53 10° E visible
05 Mar 13.4 02:59:02 22° S 03:10:47 38° SE 03:30:33 10° E visible
05 Mar 13.3 05:13:43 10° WSW 05:35:31 63° SSE 05:56:10 10° E visible
